QPF
0.00 0.00 0.00 0.00 0.00 0.00 0.00 0.00 0.00 0.00 0.00 0.00 0.00 0.00 0.00 0.00 0.00 0.00 0.00 0.00 0.00 0.00 0.00 0.00 0.00 0.00 0.00 0.00 0.00 0.00 0.00 0.00 0.00 0.00 0.00 0.00 0.00 0.00 0.00 0.00 0.00 0.00 0.00 0.00 0.00
0.00 0.00 0.00 0.00 0.00 0.00 0.00 0.00 0.00 0.00 0.00 0.00 0.00 0.00 0.00 0.00 0.00 0.00 0.00 0.00 0.00 0.00 0.00 0.00 0.00 0.00 0.00 0.00 0.00 0.00 0.00 0.00 0.00 0.00 0.00 0.00 0.00 0.00 0.00 0.00 0.00 0.00 0.00 0.00 0.00
0.00 0.00 0.00 0.00 0.00 0.00 0.00 0.00 0.00 0.00 0.00 0.00 0.00 0.00 0.00 0.00 0.00 0.00 0.00 0.00 0.00 0.00 0.00 0.00 0.00 0.00 0.00 0.00 0.00 0.00 0.00 0.00 0.00 0.00 0.00 0.00 0.00 0.00 0.00 0.00 0.00 0.00 0.00 0.00 0.00
0.00 0.00 0.00 0.00 0.00 0.00 0.00 0.00 0.00 0.00 0.00 0.00 0.00 0.00 0.00 0.00 0.00 0.00 0.00 0.00 0.00 0.00 0.00 0.00 0.00 0.00 0.00 0.00 0.00 0.00 0.00 0.00 0.00 0.00 0.00 0.00 0.00 0.00 0.00 0.00 0.00 0.00 0.00 0.00 0.00
0.00 0.00 0.00 0.00 0.00 0.00 0.00 0.00 0.00 0.00 0.00 0.00 0.00 0.00 0.00 0.00 0.00 0.00 0.00 0.00 0.00 0.00 0.00 0.00 0.00 0.00 0.00 0.00 0.00 0.00 0.00 0.00 0.00 0.00 0.00 0.00 0.00 0.00 0.00 0.00 0.00 0.00 0.00 0.00 0.00
0.00 0.00 0.00 0.00 0.00 0.00 0.00 0.00 0.00 0.00 0.00 0.00 0.00 0.00 0.00 0.00 0.00 0.00 0.00 0.00 0.00 0.00 0.00 0.00 0.00 0.00 0.00 0.00 0.00 0.00 0.00 0.00 0.00 0.00 0.00 0.00 0.00 0.00 0.00 0.00 0.00 0.00 0.00 0.00 0.00
0.00 0.00 0.00 0.00 0.00 0.00 0.00 0.00 0.00 0.00 0.00 0.00 0.00 0.00 0.00 0.00 0.00 0.00 0.00 0.00 0.00 0.00 0.00 0.00 0.00 0.00 0.00 0.00 0.00 0.00 0.00 0.00 0.00 0.00 0.00 0.00 0.00 0.00 0.00 0.00 0.00 0.00 0.00 0.00 0.00
0.00 0.00 0.00 0.00 0.00 0.00 0.00 0.00 0.00 0.00 0.00 0.00 0.00 0.00 0.00 0.00 0.00 0.00 0.00 0.00 0.00 0.00 0.00 0.00 0.00 0.00 0.00 0.00 0.00 0.00 0.00 0.00 0.00 0.00 0.00 0.00 0.00 0.00 0.00 0.00 0.00 0.00 0.00 0.00 0.00
0.00 0.00 0.00 0.00 0.00 0.00 0.00 0.00 0.00 0.00 0.00 0.00 0.00 0.00 0.00 0.00 0.00 0.00 0.00 0.00 0.00 0.00 0.00 0.00 0.00 0.00 0.00 0.00 0.00 0.00 0.00 0.00 0.00 0.00 0.00 0.00 0.00 0.00 0.00 0.00 0.00 0.00 0.00 0.00 0.00
0.00 0.00 0.00 0.00 0.00 0.00 0.00 0.00 0.00 0.00 0.00 0.00 0.00 0.00 0.00 0.00 0.00 0.00 0.00 0.00 0.00 0.00 0.00 0.00 0.00 0.00 0.00 0.00 0.00 0.00 0.00 0.00 0.00 0.00 0.00 0.00 0.00 0.00 0.00 0.00 0.00 0.00 0.00 0.00 0.00
0.00 0.00 0.00 0.00 0.00 0.00 0.00 0.00 0.00 0.00 0.00 0.00 0.00 0.00 0.00 0.00 0.00 0.00 0.00 0.00 0.00 0.00 0.00 0.00 0.00 0.00 0.00 0.00 0.00 0.00 0.00 0.00 0.00 0.00 0.00 0.00 0.00 0.00 0.00 0.00 0.00 0.00 0.00 0.00 0.00
0.00 0.00 0.00 0.00 0.00 0.00 0.00 0.00 0.00 0.00 0.00 0.00 0.00 0.00 0.00 0.00 0.00 0.00 0.00 0.00 0.00 0.00 0.00 0.00 0.00 0.00 0.00 0.00 0.00 0.00 0.00 0.00 0.00 0.00 0.00 0.00 0.00 0.00 0.00 0.00 0.00 0.00 0.00 0.00 0.00
0.00 0.00 0.00 0.00 0.00 0.00 0.00 0.00 0.00 0.00 0.00 0.00 0.00 0.00 0.00 0.00 0.00 0.00 0.00 0.00 0.00 0.00 0.00 0.00 0.00 0.00 0.00 0.00 0.00 0.00 0.00 0.00 0.00 0.00 0.00 0.00 0.00 0.00 0.00 0.00 0.00 0.00 0.00 0.00 0.00
0.00 0.00 0.00 0.00 0.00 0.00 0.00 0.00 0.00 0.00 0.00 0.00 0.00 0.00 0.00 0.00 0.00 0.00 0.00 0.00 0.00 0.00 0.00 0.00 0.00 0.00 0.00 0.00 0.00 0.00 0.00 0.00 0.00 0.00 0.00 0.00 0.00 0.00 0.00 0.00 0.00 0.00 0.00 0.00 0.00
0.00 0.00 0.00 0.01 0.00 0.00 0.00 0.00 0.00 0.00 0.00 0.00 0.00 0.00 0.00 0.00 0.00 0.00 0.00 0.00 0.00 0.00 0.00 0.00 0.00 0.00 0.00 0.00 0.00 0.00 0.00 0.00 0.00 0.00 0.00 0.00 0.00 0.00 0.00 0.00 0.00 0.00 0.00 0.00 0.00
0.00 0.00 0.00 0.00 0.00 0.00 0.00 0.00 0.01 0.02 0.00 0.00 0.00 0.00 0.00 0.00 0.00 0.00 0.00 0.00 0.00 0.00 0.00 0.00 0.00 0.00 0.00 0.00 0.00 0.00 0.00 0.00 0.00 0.00 0.00 0.00 0.00 0.00 0.00 0.00 0.00 0.00 0.00 0.00 0.00
0.00 0.00 0.00 0.00 0.00 0.00 0.00 0.00 0.05 0.03 0.00 0.00 0.00 0.00 0.00 0.00 0.00 0.00 0.00 0.00 0.00 0.00 0.00 0.00 0.00 0.00 0.00 0.00 0.00 0.00 0.00 0.00 0.00 0.00 0.00 0.00 0.00 0.00 0.00 0.00 0.00 0.00 0.00 0.00 0.00
0.00 0.00 0.00 0.00 0.00 0.00 0.00 0.01 0.02 0.00 0.00 0.00 0.00 0.00 0.00 0.00 0.00 0.00 0.00 0.00 0.00 0.00 0.00 0.00 0.00 0.00 0.00 0.00 0.00 0.00 0.00 0.00 0.00 0.00 0.00 0.00 0.00 0.00 0.00 0.00 0.00 0.00 0.00 0.00 0.00
0.00 0.00 0.00 0.00 0.00 0.00 0.00 0.00 0.00 0.00 0.00 0.00 0.00 0.00 0.00 0.00 0.00 0.00 0.00 0.00 0.00 0.00 0.00 0.00 0.00 0.00 0.00 0.00 0.00 0.00 0.00 0.00 0.00 0.00 0.00 0.00 0.00 0.00 0.00 0.00 0.00 0.00 0.00 0.00 0.00
0.00 0.00 0.00 0.00 0.00 0.02 0.00 0.00 0.00 0.00 0.00 0.00 0.00 0.00 0.00 0.00 0.00 0.00 0.00 0.00 0.00 0.00 0.00 0.00 0.00 0.00 0.00 0.00 0.00 0.00 0.00 0.00 0.00 0.00 0.00 0.00 0.00 0.00 0.00 0.00 0.00 0.00 0.00 0.00 0.00
0.00 0.00 0.00 0.00 0.01 0.02 0.01 0.00 0.00 0.00 0.00 0.00 0.00 0.00 0.00 0.00 0.00 0.00 0.00 0.00 0.00 0.00 0.00 0.00 0.00 0.00 0.00 0.00 0.00 0.00 0.00 0.00 0.00 0.00 0.00 0.00 0.00 0.00 0.00 0.00 0.00 0.00 0.00 0.00 0.00
0.00 0.00 0.00 0.01 0.01 0.00 0.00 0.00 0.00 0.00 0.00 0.00 0.00 0.00 0.00 0.00 0.00 0.00 0.00 0.00 0.00 0.00 0.00 0.00 0.00 0.00 0.00 0.00 0.00 0.00 0.00 0.00 0.00 0.00 0.00 0.00 0.00 0.00 0.00 0.00 0.00 0.00 0.00 0.00 0.00
0.00 0.00 0.00 0.01 0.01 0.00 0.00 0.00 0.00 0.00 0.00 0.00 0.00 0.00 0.00 0.00 0.00 0.00 0.00 0.00 0.00 0.00 0.00 0.00 0.00 0.00 0.00 0.00 0.00 0.00 0.00 0.00 0.00 0.00 0.00 0.00 0.00 0.00 0.00 0.00 0.00 0.00 0.00 0.00 0.00
0.00 0.00 0.00 0.00 0.00 0.00 0.00 0.00 0.00 0.00 0.00 0.00 0.00 0.00 0.00 0.00 0.00 0.00 0.00 0.00 0.00 0.00 0.00 0.00 0.00 0.00 0.00 0.00 0.00 0.00 0.00 0.00 0.00 0.00 0.00 0.00 0.00 0.00 0.00 0.00 0.00 0.00 0.00 0.00 0.00
0.00 0.00 0.01 0.00 0.00 0.00 0.00 0.00 0.00 0.00 0.00 0.00 0.00 0.00 0.00 0.00 0.00 0.00 0.00 0.00 0.00 0.00 0.00 0.00 0.00 0.00 0.00 0.00 0.00 0.00 0.00 0.00 0.00 0.00 0.00 0.00 0.00 0.00 0.00 0.00 0.00 0.00 0.00 0.00 0.00
0.00 0.01 0.00 0.00 0.00 0.00 0.00 0.00 0.00 0.01 0.01 0.00 0.00 0.00 0.01 0.00 0.00 0.00 0.00 0.00 0.00 0.00 0.00 0.00 0.00 0.00 0.00 0.00 0.00 0.00 0.00 0.00 0.00 0.00 0.00 0.00 0.00 0.00 0.00 0.00 0.00 0.00 0.00 0.00 0.00
0.00 0.01 0.01 0.00 0.00 0.00 0.00 0.00 0.00 0.01 0.03 0.02 0.02 0.00 0.00 0.00 0.00 0.00 0.00 0.00 0.00 0.00 0.00 0.00 0.00 0.00 0.00 0.00 0.00 0.00 0.00 0.00 0.00 0.00 0.00 0.00 0.00 0.00 0.00 0.00 0.00 0.00 0.00 0.00 0.00
MSLP
1019.32 1019.12 1018.84 1018.43 1018.26 1017.87 1017.63 1017.67 1017.30 1017.02 1016.44 1016.12 1015.63 1015.25 1015.11 1014.36 1013.30 1012.08 1011.11 1009.03 1009.47 1009.11 1009.24 1009.59 1009.73 1009.94 1010.68 1010.84 1010.57 1011.48 1012.36 1011.89 1010.66 1009.80 1008.27 1007.00 1006.83 1005.55 1005.17 1005.00 1004.83 1004.83 1004.62 1004.44 1004.78
1019.16 1018.85 1018.52 1018.30 1018.01 1017.63 1017.56 1017.58 1017.23 1016.91 1016.37 1015.95 1015.55 1015.32 1014.96 1014.27 1013.24 1011.30 1008.47 1008.23 1008.21 1008.75 1009.75 1009.24 1009.60 1010.22 1010.73 1010.77 1010.26 1011.07 1011.50 1010.25 1008.50 1008.52 1007.96 1006.91 1006.91 1006.06 1005.73 1004.94 1004.62 1004.49 1004.29 1004.33 1004.85
1019.02 1018.66 1018.42 1018.10 1017.78 1017.48 1017.64 1017.35 1017.09 1016.63 1016.23 1015.87 1015.57 1015.31 1014.79 1014.21 1012.98 1008.82 1006.95 1007.40 1007.36 1008.44 1008.83 1008.90 1009.01 1009.99 1010.66 1010.43 1009.67 1010.05 1009.80 1008.28 1008.04 1007.32 1007.35 1007.03 1006.09 1005.82 1005.45 1004.95 1004.47 1004.39 1003.97 1004.46 1005.03
1019.34 1018.90 1018.44 1018.04 1017.75 1017.70 1017.24 1016.76 1016.44 1016.39 1016.14 1015.89 1015.62 1015.42 1014.80 1014.26 1011.76 1007.03 1006.79 1007.08 1007.06 1007.99 1008.81 1008.76 1008.95 1009.99 1010.08 1009.65 1008.64 1009.40 1008.94 1008.33 1007.25 1006.66 1007.02 1006.55 1005.94 1005.35 1004.86 1004.30 1003.76 1003.68 1003.30 1003.94 1004.89
1019.34 1019.09 1018.80 1018.38 1017.88 1017.38 1017.12 1016.91 1016.65 1016.56 1016.15 1015.88 1015.63 1015.38 1014.95 1013.69 1009.95 1007.03 1006.85 1007.28 1007.57 1007.93 1008.15 1008.27 1008.57 1009.27 1009.41 1008.74 1008.68 1008.94 1008.06 1007.53 1007.39 1006.99 1006.42 1006.11 1005.52 1004.62 1003.90 1003.51 1003.14 1003.19 1003.51 1003.54 1004.18
1019.02 1018.70 1018.34 1018.02 1017.75 1017.44 1017.05 1016.59 1016.27 1015.86 1015.64 1015.48 1015.37 1015.25 1015.26 1012.79 1008.71 1007.49 1007.15 1007.50 1007.70 1007.63 1007.76 1008.03 1007.64 1007.88 1008.45 1008.42 1008.80 1008.02 1008.19 1007.52 1007.06 1006.74 1006.32 1005.56 1004.68 1004.36 1003.34 1003.19 1003.06 1003.20 1003.27 1003.33 1003.65
1018.78 1018.38 1017.97 1017.65 1017.35 1016.98 1016.54 1016.13 1015.77 1015.42 1015.17 1014.97 1014.86 1014.98 1013.59 1009.29 1008.51 1007.86 1007.96 1007.24 1007.04 1007.24 1007.25 1007.27 1007.50 1007.64 1008.03 1008.60 1008.15 1008.03 1007.79 1006.92 1006.69 1005.99 1005.48 1005.25 1004.37 1003.36 1002.95 1002.94 1002.91 1002.97 1002.83 1002.90 1002.86
1018.43 1018.05 1017.69 1017.29 1016.81 1016.37 1015.97 1015.60 1015.20 1014.83 1014.54 1014.44 1014.60 1014.76 1011.45 1009.13 1008.49 1008.08 1007.90 1006.85 1007.12 1007.15 1006.87 1007.04 1007.32 1007.84 1008.09 1008.40 1008.26 1008.28 1008.04 1007.12 1006.02 1005.47 1004.65 1005.36 1003.33 1002.97 1002.45 1002.79 1002.64 1002.18 1002.15 1002.29 1002.56
1018.30 1017.83 1017.45 1017.00 1016.49 1015.86 1015.27 1014.78 1014.14 1013.62 1013.79 1014.30 1014.70 1014.28 1010.67 1008.49 1007.60 1006.10 1006.57 1006.25 1005.96 1006.80 1007.02 1006.94 1007.20 1007.83 1008.10 1008.68 1009.22 1008.93 1008.07 1007.37 1005.74 1005.38 1005.12 1004.90 1003.33 1002.41 1002.24 1002.43 1002.19 1001.72 1001.55 1001.78 1001.84
1018.24 1017.72 1017.20 1016.76 1016.33 1015.80 1015.18 1014.35 1012.58 1012.54 1012.85 1013.65 1013.71 1013.59 1010.28 1006.97 1005.50 1004.66 1004.87 1006.01 1006.01 1006.09 1006.96 1007.06 1007.29 1007.40 1007.53 1008.16 1007.68 1008.38 1007.93 1006.92 1005.45 1004.98 1004.83 1004.39 1003.76 1002.48 1001.83 1001.86 1001.53 1001.30 1001.22 1001.28 1001.44
1017.93 1017.46 1017.03 1016.53 1015.98 1015.55 1015.21 1014.74 1013.13 1012.81 1012.57 1011.80 1011.15 1009.07 1006.63 1005.89 1004.26 1003.80 1004.04 1005.07 1005.82 1006.07 1005.94 1006.34 1006.71 1005.11 1005.67 1006.17 1006.54 1007.01 1007.31 1006.28 1005.00 1004.99 1004.78 1004.11 1003.45 1002.40 1001.56 1001.67 1001.38 1000.98 1001.09 1000.88 1001.37
1017.83 1017.26 1016.69 1016.24 1015.82 1015.31 1015.43 1015.35 1014.04 1013.99 1012.01 1010.65 1009.56 1008.97 1007.45 1007.54 1006.69 1003.88 1003.50 1004.40 1004.94 1004.63 1005.43 1005.80 1002.91 1003.76 1005.07 1005.77 1006.20 1006.67 1006.64 1005.70 1004.80 1004.94 1004.84 1003.95 1003.41 1002.20 1001.18 1000.97 1000.61 1000.53 1000.44 1001.03 1001.77
1017.42 1016.94 1016.45 1015.86 1015.38 1015.31 1015.36 1014.67 1013.79 1013.73 1012.71 1008.73 1006.98 1005.96 1005.60 1005.79 1005.63 1003.34 1002.91 1003.03 1003.60 1004.25 1003.52 1002.57 1000.68 1003.63 1004.18 1004.48 1005.39 1005.44 1005.70 1005.69 1005.00 1005.17 1004.72 1004.16 1003.18 1002.07 1000.50 1000.45 999.95 999.82 999.84 1000.34 1000.84
1017.10 1016.57 1016.15 1015.64 1015.27 1015.42 1014.87 1013.90 1014.02 1013.72 1012.55 1007.68 1005.50 1003.80 1003.62 1003.56 1002.98 1002.31 1001.93 1001.97 1002.45 1002.63 1003.21 1002.57 1002.13 1002.09 1002.82 1002.95 1003.93 1004.34 1004.81 1004.95 1005.21 1005.69 1005.43 1004.17 1003.70 1002.24 1001.20 1000.61 1000.16 999.74 999.80 1000.12 1000.99
1016.82 1016.21 1015.81 1015.69 1015.53 1014.95 1014.11 1013.88 1013.34 1013.18 1011.25 1005.51 1003.82 1002.80 1002.68 1003.10 1001.47 1000.37 1000.78 1001.14 1001.27 1001.69 1002.15 1000.56 1000.74 1001.56 1001.59 1001.34 1003.02 1003.00 1004.12 1004.89 1005.37 1005.53 1005.35 1004.59 1004.71 1001.93 1001.51 1000.92 1000.14 999.88 999.61 1000.35 1001.19
1016.22 1015.73 1015.43 1015.12 1015.02 1014.22 1014.08 1013.83 1013.30 1013.06 1009.29 1005.34 1003.80 1003.34 1002.61 1002.60 1001.62 999.84 999.82 1000.53 1000.89 1001.15 1000.81 1000.28 999.93 1000.23 999.12 1001.00 1001.88 1003.10 1004.24 1005.04 1005.55 1006.03 1005.22 1003.97 1004.51 1001.74 1001.12 1000.16 999.52 999.30 999.80 1000.68 1001.50
1015.64 1015.19 1015.11 1014.94 1014.30 1014.02 1014.09 1013.90 1013.35 1011.12 1007.54 1006.01 1005.02 1004.06 1003.53 1002.40 1001.59 1000.78 1000.86 1000.24 999.69 1000.71 1000.02 1000.35 999.93 999.47 999.68 1000.79 1001.80 1002.91 1004.44 1006.12 1006.24 1006.07 1004.43 1003.25 1003.41 1000.76 999.65 999.18 998.96 999.29 1000.04 1001.04 1002.09
1015.09 1014.65 1014.21 1014.05 1013.81 1014.00 1014.28 1014.06 1012.47 1009.46 1008.04 1006.41 1006.31 1005.27 1004.55 1003.77 1002.66 1001.66 1000.70 1000.25 999.62 999.33 999.56 999.93 999.72 998.92 998.58 999.21 1000.43 1001.82 1003.12 1004.41 1005.25 1004.95 1003.87 1002.85 1001.60 998.96 998.20 997.98 998.26 998.98 999.84 1001.08 1002.13
1014.73 1014.32 1014.33 1013.54 1013.51 1014.07 1014.11 1013.28 1011.27 1009.71 1009.02 1008.03 1006.91 1006.01 1005.36 1005.33 1004.70 1003.17 1001.88 1001.55 1000.30 999.72 999.96 999.92 998.96 997.83 998.20 998.62 999.46 1000.83 1001.51 1003.08 1004.09 1004.00 1003.52 1002.09 1000.18 998.55 997.96 998.28 998.55 999.18 999.97 1001.27 1002.01
1015.09 1014.61 1014.22 1013.39 1013.34 1013.79 1013.83 1012.62 1011.28 1010.02 1009.38 1008.72 1008.21 1007.55 1007.07 1006.25 1005.70 1004.94 1003.65 1002.99 1001.50 1000.70 1000.10 999.73 999.16 997.84 997.07 997.90 998.03 998.88 1000.78 1002.73 1003.35 1003.59 1003.14 1001.60 1000.29 999.15 998.40 998.30 998.99 999.61 1000.44 1001.32 1002.17
1015.31 1014.98 1014.00 1013.26 1013.24 1013.76 1013.45 1012.80 1011.48 1010.44 1009.96 1009.59 1008.98 1008.67 1007.92 1007.09 1006.72 1006.04 1004.69 1003.65 1003.11 1002.03 1000.92 1000.23 999.61 998.12 997.37 996.25 996.90 998.31 998.98 999.97 1001.46 1001.97 1001.87 1001.38 999.61 998.22 997.93 998.11 998.82 999.45 1000.23 1001.02 1001.79
1015.86 1015.43 1014.54 1013.71 1014.01 1013.78 1013.55 1012.80 1011.77 1010.70 1010.09 1009.84 1009.22 1008.82 1008.02 1007.49 1006.89 1006.55 1005.49 1004.82 1004.43 1003.81 1003.01 1001.55 1000.16 998.80 997.14 996.19 996.25 997.08 998.17 998.65 999.67 1000.77 1000.81 1000.52 998.67 997.28 997.06 997.31 997.80 998.99 1000.04 1000.89 1001.57
1016.33 1015.79 1014.92 1014.33 1014.30 1013.98 1013.63 1012.92 1012.09 1011.00 1010.31 1009.79 1009.08 1008.60 1008.19 1007.84 1007.37 1006.50 1005.87 1005.14 1004.71 1004.36 1004.30 1003.35 1001.01 999.89 998.21 996.97 996.09 995.88 996.11 997.17 998.47 999.55 999.75 999.82 997.83 996.86 997.01 997.22 997.96 998.76 999.78 1000.68 1001.44
1016.67 1016.39 1015.83 1015.34 1015.08 1014.74 1013.88 1012.88 1011.99 1010.86 1010.27 1009.59 1009.05 1008.73 1008.34 1007.77 1007.31 1006.53 1005.76 1005.41 1005.00 1005.14 1004.74 1004.39 1002.89 1000.18 997.35 995.61 995.24 995.30 995.86 996.59 997.54 998.36 998.10 997.57 997.15 996.93 997.02 997.29 998.23 999.05 999.81 1000.30 1001.09
1017.01 1016.81 1016.43 1015.89 1015.18 1014.76 1014.14 1013.08 1012.23 1011.45 1010.56 1009.61 1009.17 1008.91 1008.74 1007.97 1007.17 1006.26 1005.59 1005.04 1005.00 1005.09 1005.29 1005.20 1003.97 1001.49 998.66 996.89 995.76 995.03 995.13 995.63 995.74 996.11 996.84 996.42 996.67 996.26 996.41 996.82 997.38 998.22 999.54 1000.27 1000.97
1017.12 1016.76 1016.42 1016.09 1015.57 1014.88 1013.92 1013.18 1012.37 1011.54 1011.23 1009.99 1009.60 1009.13 1008.64 1008.23 1007.66 1006.88 1006.07 1005.45 1004.95 1005.61 1005.91 1005.70 1004.58 1002.64 999.61 997.52 996.02 995.45 994.70 994.45 994.72 995.24 995.51 995.47 995.67 994.89 995.01 995.85 997.21 998.01 998.74 999.55 1000.10
1016.46 1016.33 1016.43 1015.76 1015.67 1015.19 1014.29 1013.56 1012.48 1011.81 1010.67 1010.24 1009.51 1009.14 1008.28 1007.45 1007.02 1006.50 1005.92 1005.48 1005.26 1005.50 1005.92 1006.16 1005.28 1003.85 1000.50 998.07 996.91 995.88 993.44 993.71 993.70 993.78 993.94 994.65 994.41 994.52 995.24 995.71 996.45 997.27 997.77 998.17 998.97
Thickness
5644 5645 5648 5653 5655 5661 5664 5664 5668 5671 5678 5683 5690 5696 5699 5709 5721 5735 5740 5762 5756 5763 5766 5762 5762 5760 5752 5747 5752 5741 5703 5706 5723 5731 5745 5771 5761 5780 5782 5773 5777 5776 5777 5785 5785
5640 5642 5645 5647 5649 5654 5654 5654 5658 5662 5669 5674 5680 5684 5689 5698 5710 5724 5766 5759 5763 5760 5752 5754 5745 5743 5731 5734 5740 5723 5696 5720 5755 5748 5744 5758 5755 5761 5759 5760 5766 5772 5781 5783 5781
5635 5637 5638 5640 5642 5644 5642 5645 5647 5653 5658 5663 5667 5672 5679 5686 5699 5736 5760 5762 5761 5754 5753 5753 5749 5735 5722 5730 5736 5721 5713 5747 5749 5757 5751 5746 5758 5765 5753 5750 5764 5762 5774 5774 5774
5624 5626 5629 5631 5632 5631 5634 5639 5642 5642 5645 5649 5654 5658 5666 5673 5677 5743 5754 5754 5758 5750 5741 5739 5736 5721 5717 5718 5743 5712 5727 5740 5750 5758 5746 5743 5753 5751 5758 5761 5779 5775 5780 5776 5767
5615 5615 5617 5619 5621 5625 5626 5627 5629 5628 5633 5637 5642 5646 5652 5661 5693 5735 5746 5742 5742 5740 5735 5729 5723 5719 5710 5723 5732 5712 5730 5739 5737 5741 5746 5746 5741 5748 5756 5772 5781 5777 5771 5773 5769
5608 5609 5610 5611 5612 5613 5616 5619 5622 5625 5627 5629 5631 5634 5634 5641 5710 5722 5727 5727 5726 5729 5726 5724 5727 5730 5712 5717 5708 5726 5717 5722 5730 5732 5737 5735 5737 5739 5758 5769 5767 5765 5766 5768 5768
5597 5599 5600 5601 5602 5604 5607 5610 5613 5617 5620 5623 5623 5622 5634 5678 5697 5707 5701 5714 5721 5721 5718 5727 5726 5717 5710 5702 5717 5713 5701 5717 5722 5733 5732 5735 5712 5732 5757 5762 5757 5758 5764 5766 5767
5585 5584 5585 5586 5589 5592 5596 5599 5603 5607 5611 5614 5613 5612 5637 5675 5678 5687 5693 5704 5708 5712 5718 5721 5717 5704 5695 5702 5700 5694 5693 5684 5724 5734 5738 5717 5709 5738 5758 5748 5751 5761 5765 5765 5762
5569 5569 5568 5568 5570 5575 5580 5586 5594 5601 5601 5599 5598 5602 5631 5661 5675 5695 5688 5692 5700 5699 5703 5707 5698 5684 5686 5673 5660 5668 5673 5681 5707 5724 5718 5710 5714 5741 5749 5746 5750 5761 5764 5762 5765
5549 5546 5546 5547 5549 5552 5557 5565 5583 5589 5593 5590 5592 5594 5623 5659 5675 5692 5691 5683 5682 5686 5678 5676 5673 5663 5664 5659 5655 5667 5666 5682 5697 5716 5709 5706 5704 5735 5747 5746 5752 5758 5759 5761 5763
5525 5522 5520 5519 5522 5525 5532 5537 5555 5567 5577 5587 5599 5622 5647 5653 5675 5683 5688 5676 5672 5666 5658 5664 5655 5663 5677 5691 5695 5685 5673 5681 5706 5714 5704 5703 5707 5733 5745 5742 5746 5754 5754 5760 5756
5489 5484 5483 5486 5491 5495 5499 5496 5521 5530 5553 5579 5594 5606 5624 5622 5626 5662 5680 5667 5661 5659 5663 5656 5671 5690 5693 5688 5682 5676 5673 5684 5707 5711 5699 5705 5707 5731 5742 5746 5749 5753 5757 5754 5749
5463 5460 5458 5461 5464 5466 5464 5474 5494 5505 5515 5575 5596 5610 5621 5620 5620 5649 5668 5669 5662 5653 5664 5671 5705 5693 5687 5685 5672 5676 5674 5681 5691 5699 5701 5698 5703 5721 5747 5747 5754 5758 5762 5758 5756
5450 5447 5445 5447 5450 5447 5448 5461 5462 5476 5489 5564 5588 5602 5614 5622 5623 5654 5665 5668 5662 5659 5662 5667 5689 5686 5682 5680 5683 5668 5693 5695 5691 5678 5661 5695 5662 5709 5725 5733 5744 5753 5757 5758 5753
5442 5441 5439 5436 5439 5441 5448 5451 5455 5460 5473 5568 5573 5590 5599 5605 5633 5651 5663 5662 5658 5661 5662 5673 5684 5677 5678 5691 5691 5686 5699 5688 5685 5675 5672 5682 5658 5702 5714 5721 5734 5748 5760 5752 5749
5439 5437 5435 5433 5431 5440 5441 5443 5449 5444 5471 5537 5546 5556 5581 5593 5613 5640 5649 5654 5658 5655 5665 5674 5692 5689 5704 5700 5698 5696 5684 5676 5671 5661 5646 5685 5664 5688 5707 5725 5742 5758 5755 5746 5742
5433 5431 5427 5426 5428 5432 5432 5432 5436 5442 5511 5514 5520 5539 5555 5575 5595 5608 5622 5629 5639 5628 5642 5653 5663 5685 5694 5675 5678 5673 5650 5619 5620 5624 5637 5696 5671 5710 5725 5736 5747 5752 5748 5740 5732
5428 5425 5424 5423 5424 5422 5419 5423 5424 5481 5492 5502 5502 5514 5528 5547 5563 5588 5615 5622 5644 5653 5646 5639 5638 5671 5690 5681 5672 5669 5665 5629 5618 5626 5656 5690 5675 5716 5744 5751 5753 5754 5747 5738 5729
5421 5418 5412 5417 5417 5413 5415 5422 5437 5464 5465 5472 5494 5500 5513 5521 5541 5566 5585 5606 5628 5646 5633 5633 5644 5684 5686 5689 5686 5666 5656 5672 5655 5666 5658 5674 5706 5731 5745 5744 5743 5741 5741 5732 5729
5413 5408 5404 5408 5408 5409 5409 5423 5430 5452 5454 5466 5465 5480 5484 5505 5521 5539 5556 5579 5598 5618 5634 5643 5633 5673 5690 5688 5693 5677 5672 5649 5642 5639 5644 5669 5690 5698 5731 5736 5735 5734 5732 5729 5723
5405 5401 5403 5405 5407 5404 5406 5403 5423 5438 5441 5448 5453 5458 5477 5492 5503 5516 5540 5562 5572 5592 5613 5633 5635 5658 5673 5677 5678 5664 5664 5667 5668 5658 5642 5651 5677 5717 5731 5735 5734 5734 5732 5729 5724
5396 5395 5400 5405 5402 5401 5394 5410 5421 5427 5437 5442 5456 5463 5473 5482 5492 5503 5520 5537 5556 5571 5579 5603 5621 5636 5665 5689 5697 5687 5677 5682 5674 5655 5671 5667 5688 5736 5737 5741 5745 5739 5734 5728 5725
5394 5394 5398 5401 5405 5403 5406 5409 5416 5422 5427 5439 5451 5463 5470 5472 5477 5497 5509 5530 5546 5554 5563 5579 5607 5624 5635 5663 5680 5684 5694 5696 5681 5668 5664 5670 5697 5733 5736 5737 5741 5736 5733 5728 5722
5393 5390 5391 5392 5392 5396 5407 5413 5418 5436 5435 5442 5448 5452 5460 5468 5476 5486 5506 5519 5533 5542 5560 5567 5582 5626 5649 5673 5687 5681 5687 5684 5684 5672 5686 5693 5710 5725 5730 5734 5735 5733 5730 5726 5722
5383 5385 5386 5389 5393 5395 5399 5411 5417 5419 5431 5441 5443 5447 5447 5460 5472 5487 5502 5517 5527 5537 5545 5550 5564 5607 5645 5668 5681 5690 5690 5691 5688 5699 5685 5712 5706 5722 5728 5733 5739 5737 5728 5724 5718
5386 5388 5382 5382 5388 5393 5402 5409 5414 5423 5416 5430 5433 5439 5444 5450 5462 5468 5490 5505 5520 5526 5533 5540 5555 5589 5628 5661 5674 5671 5685 5696 5702 5703 5705 5707 5711 5738 5744 5744 5734 5733 5732 5729 5724
5395 5391 5381 5385 5385 5380 5388 5404 5416 5420 5429 5428 5436 5432 5439 5455 5467 5474 5483 5501 5515 5520 5528 5537 5547 5573 5608 5653 5658 5640 5681 5687 5702 5715 5720 5699 5724 5733 5734 5739 5738 5732 5737 5739 5733